Dewpoint
56 56 57 57 57 57 57 57 57 57 58 58 58 57 58 58 57 51 48 51 55 59 59 55 51 50 49 48 49 43 40 35 36 34 32 37 38 43 51 49 53 56 56 59 60
56 56 56 56 56 56 56 56 57 57 57 58 58 57 58 57 51 48 51 54 57 57 54 52 49 50 45 45 44 41 37 37 38 36 37 39 39 39 46 52 53 55 60 60 60
55 56 56 56 56 56 56 56 56 56 57 57 58 58 58 54 46 43 51 53 55 56 54 53 52 49 44 44 42 38 36 38 37 38 38 39 36 38 40 48 54 54 58 60 60
55 55 55 56 56 56 56 56 56 56 56 57 58 58 57 48 35 45 50 51 55 53 53 50 47 43 43 40 42 39 39 37 38 38 37 36 37 36 45 45 56 58 58 60 61
55 55 55 55 55 56 56 56 56 56 56 56 57 58 44 39 42 44 52 49 50 50 49 47 46 45 40 41 40 40 39 39 39 39 36 35 34 35 35 45 54 58 58 61 60
55 55 55 55 55 55 56 56 56 56 56 56 57 55 41 36 43 45 45 44 48 48 48 48 47 48 45 41 39 39 40 39 39 38 37 34 33 36 35 53 56 56 57 60 60
54 54 54 55 55 55 55 55 55 56 56 56 56 46 39 36 44 43 44 44 48 48 47 49 48 46 46 42 42 40 37 38 37 36 35 34 30 32 34 38 55 55 56 59 57
54 54 54 54 54 55 55 55 55 55 56 56 54 41 35 44 45 44 43 45 46 47 48 48 49 47 46 44 40 38 36 33 34 35 35 32 29 33 34 35 46 55 56 58 58
53 53 54 54 54 54 54 55 55 54 55 55 43 39 35 48 44 43 43 44 45 46 47 47 45 44 43 39 34 33 29 30 31 33 33 31 30 32 34 40 35 52 54 57 58
53 53 54 54 54 54 54 54 52 51 46 43 38 33 34 36 42 44 44 45 44 44 44 44 41 38 38 34 24 29 30 32 31 32 32 31 29 30 31 35 42 50 54 56 56
54 54 54 54 55 54 52 41 33 30 37 31 32 33 36 41 42 42 45 43 43 41 36 38 35 31 33 36 36 35 33 32 33 34 32 31 28 27 28 35 40 48 54 54 56
54 54 54 54 54 54 47 39 39 39 33 35 33 35 35 39 33 40 43 41 40 36 37 35 32 35 35 35 35 34 32 31 32 33 32 30 29 29 29 29 40 44 52 53 55
54 54 54 54 54 45 39 40 44 42 33 29 33 31 33 34 31 33 40 39 37 36 35 32 31 36 35 34 33 33 31 31 31 32 32 30 28 29 29 29 39 45 49 54 55
54 54 54 54 42 42 40 43 43 38 24 22 27 31 35 36 31 38 40 37 35 35 35 33 34 34 34 33 33 30 32 32 30 28 24 31 26 29 30 29 27 39 48 52 54
54 54 54 53 44 39 40 41 41 34 7 21 28 35 37 30 33 35 40 36 31 32 33 29 34 34 34 34 34 31 31 29 29 26 25 27 24 26 30 26 26 34 45 50 54
54 54 54 47 43 44 41 42 39 24 7 21 29 29 31 32 32 36 35 35 33 29 29 31 35 35 34 36 36 33 29 29 29 27 23 26 26 24 26 26 25 26 46 48 53
52 53 53 49 36 42 43 41 26 16 17 16 23 29 28 27 30 31 30 31 24 20 21 28 32 35 36 34 36 31 27 15 17 23 21 20 24 26 28 29 29 26 42 48 51
50 52 51 47 44 42 41 32 19 17 21 24 24 28 25 27 27 29 27 25 28 24 21 22 16 33 35 33 30 29 27 20 15 12 19 25 23 26 29 30 31 30 31 46 49
49 46 44 44 44 43 35 22 19 20 19 22 22 23 20 23 20 26 25 23 25 27 21 23 24 33 35 36 31 28 26 30 27 24 23 23 23 24 27 28 28 28 30 32 47
46 44 43 44 45 41 32 24 24 25 24 23 16 17 15 19 20 20 20 22 23 27 25 22 20 30 33 35 35 31 30 28 29 17 17 20 20 23 24 26 26 24 26 29 35
45 38 39 44 42 37 26 26 28 32 27 21 19 15 16 19 20 20 18 20 24 26 25 23 22 22 30 32 31 33 31 28 28 26 20 18 20 26 26 25 25 27 29 29 31
39 32 39 42 32 31 28 29 34 29 28 27 24 20 17 17 20 21 20 18 24 25 23 23 22 20 25 28 33 33 32 28 23 21 22 18 23 27 27 28 27 29 28 27 30
33 35 41 39 28 27 29 29 30 29 28 27 25 26 24 21 16 21 23 24 25 24 23 24 22 16 14 21 29 31 31 30 28 27 24 21 22 28 27 28 27 27 28 27 28
33 28 34 38 36 31 31 31 29 31 29 28 26 26 25 22 21 18 19 25 27 25 35 29 21 18 13 14 23 25 28 30 28 23 25 25 24 25 26 28 30 30 29 30 29
33 28 32 26 27 26 26 27 26 27 33 32 28 27 26 24 23 22 22 26 28 31 31 23 20 20 19 21 21 21 23 29 29 28 26 22 25 26 27 27 30 31 31 27 28
30 28 28 26 26 23 22 20 21 22 24 26 29 30 33 27 26 24 24 23 25 29 26 25 21 22 20 21 20 19 20 21 26 29 29 28 25 23 24 27 29 29 28 25 27
35 35 33 24 22 21 20 19 20 22 21 22 23 25 25 25 31 29 25 23 20 23 26 25 23 21 17 19 19 17 20 19 18 19 20 20 22 22 23 26 27 28 26 23 23
Lifted_Index
10 10 10 10 10 10 11 11 11 10 10 9 9 9 10 10 10 10 10 9 8 6 5 4 2 2 2 1 1 1 2 2 2 2 3 2 2 1 -0 -1 -1 -1 -2 -3 -3
10 10 10 10 10 10 11 11 10 10 10 9 9 9 10 10 10 10 10 9 7 6 5 4 3 2 2 1 1 2 2 3 3 3 3 3 3 2 1 -1 -1 -2 -3 -3 -3
10 10 10 10 10 10 10 10 10 10 9 9 9 9 10 10 10 10 10 9 7 7 6 4 3 2 2 2 2 2 2 3 3 3 3 3 3 3 2 1 -1 -2 -2 -3 -4
10 10 10 10 10 10 10 10 10 10 9 9 9 9 10 10 10 10 10 9 8 7 6 5 3 3 2 2 1 2 2 2 3 3 3 3 3 3 3 1 -1 -2 -2 -3 -3
10 10 10 10 10 10 10 10 10 9 9 9 9 10 11 11 10 10 10 9 8 7 7 5 4 3 2 2 1 1 2 2 2 3 3 3 4 4 3 1 -1 -1 -2 -2 -2
10 10 10 10 10 10 10 9 9 9 9 9 9 10 11 11 10 10 10 9 8 8 7 6 4 3 2 2 1 1 2 2 2 2 2 3 3 4 3 1 -1 -1 -2 -2 -1
10 10 10 10 10 10 10 9 9 9 9 9 9 11 11 11 10 10 9 9 8 8 7 6 5 4 3 2 1 1 1 2 2 2 2 2 3 3 3 1 -0 -1 -2 -2 -1
10 10 10 10 10 10 9 9 9 9 9 9 10 11 10 10 9 9 9 8 8 7 7 7 6 5 3 2 2 2 2 2 2 2 1 2 2 3 2 1 0 -1 -2 -2 -2
10 10 10 9 9 9 9 9 9 9 9 9 10 10 9 9 9 9 9 8 8 7 7 7 6 5 4 3 3 2 2 2 2 1 1 1 2 2 2 1 1 -0 -1 -1 -1
10 9 9 9 9 9 9 10 10 10 10 10 10 10 9 9 9 8 8 8 8 7 7 7 6 6 5 4 3 3 2 2 2 2 2 2 2 2 2 2 2 1 -0 -1 -1
9 9 9 9 9 9 10 10 10 10 10 9 10 10 9 9 9 8 8 7 7 7 7 7 6 6 6 5 4 3 3 2 2 2 2 2 2 2 2 3 3 2 0 -1 -1
9 9 9 9 9 10 10 10 11 10 9 9 9 10 9 9 9 8 8 7 7 7 7 6 6 6 6 6 5 4 3 3 3 3 2 2 2 2 2 3 3 3 1 -1 -2
9 9 9 9 10 10 10 11 11 10 8 8 9 9 9 9 8 8 8 7 7 7 6 6 6 6 6 6 5 5 4 4 3 3 3 2 2 2 3 3 4 3 2 -1 -1
9 9 9 9 10 10 11 11 11 10 7 6 7 8 9 8 8 8 8 7 7 6 6 6 6 6 6 6 6 5 5 5 4 4 3 3 2 2 3 4 4 4 2 0 -1
8 9 9 10 10 11 11 11 11 8 5 5 6 7 8 7 7 7 8 8 7 7 6 6 6 6 6 6 6 6 6 5 5 4 4 3 2 1 2 3 4 4 3 1 0
8 9 9 10 11 11 11 11 9 7 5 5 6 6 6 6 7 7 7 7 7 6 6 6 6 6 6 6 6 6 6 5 4 4 3 3 2 2 2 3 3 3 3 2 1
9 9 9 10 11 11 11 9 7 6 6 5 6 6 6 6 6 6 6 6 5 5 4 4 5 6 6 6 6 5 5 4 3 2 2 3 3 2 2 3 3 3 3 2 1
11 10 10 10 11 11 10 8 6 6 6 6 6 6 6 6 6 6 6 5 5 4 4 3 4 5 6 6 5 5 5 3 2 2 2 3 3 3 3 3 3 3 3 2 1
12 11 11 10 10 10 9 7 6 6 7 7 7 7 7 7 7 7 6 6 5 5 4 3 3 5 5 5 5 5 5 4 3 3 2 3 3 3 3 3 3 3 3 3 2
12 12 11 10 10 9 8 6 6 7 7 7 6 7 7 7 7 7 7 7 6 5 5 4 4 4 5 5 5 5 5 4 4 3 2 2 2 3 3 3 3 3 3 3 3
12 12 11 10 9 9 7 7 7 8 7 7 7 7 7 7 7 7 7 7 6 6 5 5 5 4 4 4 5 5 4 4 4 3 2 1 2 3 4 3 3 3 3 3 3
14 12 11 10 9 9 8 8 8 8 8 7 7 7 6 6 6 7 7 7 6 5 5 5 5 4 4 4 5 4 4 4 4 3 3 2 2 3 4 4 3 3 3 3 3
15 13 11 10 9 9 9 9 9 9 8 8 7 7 6 6 6 6 7 7 6 5 4 4 4 4 3 4 4 4 4 4 4 4 3 2 2 4 5 4 4 3 3 3 3
15 13 12 11 10 10 10 10 10 9 8 8 7 7 6 6 6 6 6 6 6 5 4 3 4 4 3 3 3 3 3 4 4 4 3 3 3 3 4 5 4 4 4 3 3
14 14 13 13 12 11 11 11 10 10 9 8 7 7 6 6 6 6 6 6 5 4 3 3 4 4 3 3 2 3 3 4 4 4 4 3 3 3 4 5 6 5 5 4 3
15 15 15 15 14 14 13 13 12 11 10 9 8 7 7 6 6 6 5 5 5 4 3 3 3 4 4 3 2 3 3 4 4 4 4 4 4 4 4 6 7 6 5 4 3
15 15 15 15 15 15 14 14 13 13 12 11 10 8 7 6 6 5 5 5 4 4 3 3 3 4 3 3 2 3 3 3 4 4 4 4 4 4 5 6 7 6 5 4 3